Weather History for Wright-Patt AFB, OH

Change the Weather History Date:

Wednesday, July 18, 2012

  Actual Average Record
Temperature  
Mean Temperature 84 °F -  
Max Temperature 95 °F 82 °F 95 °F (2012)
Min Temperature 74 °F 61 °F 55 °F (2014)
Cooling Degree Days 20    
Growing Degree Days 34 (Base 50)    
Moisture  
Dew Point 71 °F    
Average Humidity 75    
Maximum Humidity 89    
Minimum Humidity 46    
Precipitation  
Precipitation 0.16 in - - ()
Sea Level Pressure  
Sea Level Pressure 29.92 in    
Wind  
Wind Speed 5 mph (SSW)    
Max Wind Speed 18 mph    
Max Gust Speed 34 mph    
Visibility 10 miles    
Events Rain , Thunderstorm    
Averages and records for this station are not official NWS values.
T = Trace of Precipitation, MM = Missing Value Source: NWS Daily Summary

Daily Weather History Graph

Daily Weather History Graph

Search for Another Location

Airport:

Trip Planner

Search our weather history database for the weather conditions in past years. The results will help you decide how hot, cold, wet, or windy it might be!

Date:

Astronomy

Jul. 18, 2012 Rise Set
Actual Time 6:23 AM EDT 9:01 PM EDT
Civil Twilight 5:51 AM EDT 9:32 PM EDT
Nautical Twilight 5:12 AM EDT 10:11 PM EDT
Astronomical Twilight 4:28 AM EDT 10:55 PM EDT
Moon 5:56 AM EDT (7/18) 8:30 PM EDT (7/18)
Length of Visible Light 15h 40m
Length of Day
14h 38m
Waning Crescent, 0% of the Moon is Illuminated
Jul 18
Waning Crescent
Jul 19
New
Jul 26
First Quarter
Aug 1
Full
Aug 9
Last Quarter

Hourly Weather History & Observations

Time (EDT) Temp. Heat Index Dew Point Humidity Pressure Visibility Wind Dir Wind Speed Gust Speed Precip Events Conditions
12:55 AM 79.2 °F - 70.0 °F 73% 29.88 in 10.0 mi South 4.6 mph - N/A   Overcast
1:55 AM 80.6 °F 84.1 °F 70.3 °F 71% 29.88 in 10.0 mi South 4.6 mph - N/A   Mostly Cloudy
2:55 AM 78.1 °F - 70.5 °F 77% 29.88 in 10.0 mi South 4.6 mph - N/A   Mostly Cloudy
3:55 AM 76.8 °F - 70.3 °F 80% 29.89 in 10.0 mi SW 4.6 mph - N/A   Mostly Cloudy
4:52 AM 78.8 °F - 69.8 °F 74% 29.89 in 10.0 mi Calm Calm - N/A Rain Light Rain
4:55 AM 78.4 °F - 70.2 °F 76% 29.89 in 10.0 mi Calm Calm - 0.00 in Rain Light Rain
5:27 AM 77.0 °F - 71.6 °F 83% 29.90 in 10.0 mi SW 4.6 mph - N/A   Mostly Cloudy
5:55 AM 77.2 °F - 71.6 °F 83% 29.91 in 10.0 mi Calm Calm - 0.00 in   Mostly Cloudy
6:55 AM 78.1 °F - 71.4 °F 80% 29.93 in 10.0 mi Calm Calm - N/A   Mostly Cloudy
7:55 AM 79.9 °F - 71.6 °F 76% 29.94 in 10.0 mi SW 5.8 mph - N/A   Scattered Clouds
8:55 AM 83.5 °F 88.5 °F 71.4 °F 67% 29.94 in 10.0 mi WSW 5.8 mph - N/A   Mostly Cloudy
9:55 AM 85.6 °F 91.1 °F 71.2 °F 62% 29.95 in 10.0 mi Calm Calm - N/A   Mostly Cloudy
10:55 AM 88.7 °F 95.7 °F 72.0 °F 58% 29.95 in 10.0 mi Variable 5.8 mph - N/A   Mostly Cloudy
11:55 AM 89.1 °F 96.0 °F 72.1 °F 57% 29.97 in 10.0 mi Variable 4.6 mph - N/A   Mostly Cloudy
12:55 PM 94.1 °F 101.8 °F 71.8 °F 48% 29.92 in 10.0 mi Variable 5.8 mph - N/A   Mostly Cloudy
1:35 PM 93.2 °F 98.8 °F 69.8 °F 46% 29.93 in 10.0 mi NW 17.3 mph 25.3 mph N/A Thunderstorm Thunderstorm
1:40 PM 89.6 °F 94.7 °F 69.8 °F 52% 29.91 in 10.0 mi NW 18.4 mph 27.6 mph N/A Rain , Thunderstorm Light Thunderstorms and Rain
1:55 PM 81.0 °F 85.6 °F 72.9 °F 76% 29.93 in 10.0 mi NNW 13.8 mph 34.5 mph 0.01 in Rain , Thunderstorm Heavy Thunderstorms and Rain
2:28 PM 75.2 °F - 71.6 °F 89% 29.92 in 10.0 mi West 4.6 mph - N/A Rain , Thunderstorm Light Rain
2:55 PM 75.4 °F - 71.4 °F 87% 29.95 in 10.0 mi NW 8.1 mph - 0.15 in Rain Light Rain
3:12 PM 75.2 °F - 71.6 °F 89% 29.94 in 10.0 mi East 4.6 mph - N/A   Mostly Cloudy
3:55 PM 75.7 °F - 71.2 °F 86% 29.96 in 10.0 mi NNE 6.9 mph - 0.00 in   Overcast
4:55 PM 77.2 °F - 70.7 °F 80% 29.91 in 10.0 mi ESE 5.8 mph - N/A   Overcast
5:13 PM 78.8 °F - 69.8 °F 74% 29.91 in 10.0 mi Calm Calm - N/A Rain Light Rain
5:49 PM 77.0 °F - 71.6 °F 83% 29.92 in 10.0 mi WSW 4.6 mph - N/A   Overcast
5:55 PM 76.8 °F - 72.1 °F 85% 29.91 in 10.0 mi SW 3.5 mph - 0.00 in   Overcast
6:55 PM 78.4 °F - 70.0 °F 75% 29.90 in 10.0 mi South 4.6 mph - N/A   Mostly Cloudy
7:55 PM 78.1 °F - 70.9 °F 78% 29.93 in 10.0 mi South 5.8 mph - N/A   Overcast
8:55 PM 77.7 °F - 70.7 °F 79% 29.92 in 10.0 mi SE 4.6 mph - N/A   Overcast
9:55 PM 76.5 °F - 70.9 °F 83% 29.91 in 10.0 mi SE 5.8 mph - N/A   Mostly Cloudy
10:55 PM 75.6 °F - 70.3 °F 84% 29.98 in 10.0 mi SSE 5.8 mph - N/A   Mostly Cloudy
11:55 PM 74.3 °F - 70.2 °F 87% 29.97 in 10.0 mi SE 4.6 mph - N/A   Mostly Cloudy